User: anonymous   Login
Location: Caltech
(34.1382°N, 118.1253°W)
Time: 22:08:17
(UTC-07:00)
Language:

Cosmos 1939 Rocket - Orbit

View from above orbital plane
View from above orbital plane
View from above satellite
View from above satellite

Ground track
Ground track

The orbit data is extracted from the following two-line orbital elements,

1 19046U 88032B   15238.62358175 +.00001198 +00000-0 +95815-4 0  9998
2 19046 097.6307 289.8955 0043056 063.5239 297.0392 15.01392202473490
Epoch (UTC): 26 August 2015 14:57:57
Eccentricity: 0.0043056
inclination: 97.6307°
perigee height: 533 km
apogee height: 592 km
right ascension of ascending node: 289.8955°
argument of perigee: 63.5239°
revolutions per day: 15.01392202
mean anomaly at epoch: 297.0392°
orbit number at epoch: 47349

The dashed part of the orbit path shows where the satellite is in the earth's shadow,  

DLR